Regional Weather Roundup
Issued by NWS

Home | Current Version | Previous Version | Graphics & Text | Print | Product List | Glossary On
Versions: 1 2 3 4 5 6 7 8 9 10 11 12 13 14 15 16 17 18 19 20 21 22 23 24 25 26 27 28
000
ASUS45 KCYS 260210
RWRWY

WYOMING REGIONAL WEATHER ROUNDUP
NATIONAL WEATHER SERVICE CHEYENNE WY
800 PM MDT SAT MAR 25 2017

NOTE:  "FAIR" INDICATES FEW OR NO CLOUDS BELOW 12,000 FEET
WITH NO SIGNIFICANT WEATHER AND/OR OBSTRUCTIONS TO VISIBILITY.

WYZ001-260300-
YELLOWSTONE NATIONAL PARK

CITY           SKY/WX    TMP DP  RH WIND       PRES   REMARKS
LK YELLOWSTONE   N/A     31  21  66 CALM      29.97R
W YELLOWSTONE  NOT AVBL

$$
WYZ002>013-054>058-071-098>099-260300-
NORTHERN WYOMING

CITY           SKY/WX    TMP DP  RH WIND       PRES   REMARKS
JACKSON        PTCLDY    37  27  65 W7        29.95R WCI  32
CODY           FAIR      42  29  59 NW6       29.93R
GREYBULL       LGT RAIN  45  41  86 CALM      29.89R
WORLAND        CLOUDY    45  41  86 N9        29.90R
SHERIDAN       LGT RAIN  42  40  92 NW7       29.94R
BUFFALO        LGT RAIN  41  38  89 NW10      29.92R
GILLETTE       CLOUDY    47  34  60 N10       29.87R
HULETT         CLOUDY    46  34  61 N7        29.88S
NEWCASTLE      FAIR      54  27  35 E16       29.82R

$$
WYZ014>020-022>026-101>103-260300-
CENTRAL WYOMING

CITY           SKY/WX    TMP DP  RH WIND       PRES   REMARKS
BIG PINEY      FAIR      33  32  96 N9        29.93S WCI  25
PINEDALE       CLOUDY    34  32  93 NW6       29.93S WCI  29
DUBOIS         MOCLDY    36  27  69 W15       29.89S WCI  26
LANDER         CLOUDY    42  36  79 NW20      29.86R
RIVERTON       LGT RAIN  45  39  79 N12       29.87R
CASPER         CLOUDY    48  33  56 N10       29.85S
DOUGLAS        CLOUDY    51  32  48 NW6       29.84R

$$
WYZ021-027>030-104>119-260300-
SOUTHERN WYOMING

CITY           SKY/WX    TMP DP  RH WIND       PRES   REMARKS
EVANSTON       MIX PCPN  34  32  92 N5        29.97R FOG     WCI  30
KEMMERER         N/A     34  30  86 NW14      29.95R WCI  24
FORT BRIDGER   RAIN      37  37 100 W14       29.98S WCI  28
ROCK SPRINGS   LGT RAIN  39  35  86 W9        29.92R WCI  33
DIXON            N/A     49  30  48 CALM      29.92S
RAWLINS        CLOUDY    47  30  51 SW12      29.89R
SARATOGA       CLOUDY    45  32  61 W8        29.91R
LARAMIE        CLOUDY    46  25  43 SE12      29.87S
CHEYENNE       MOCLDY    50  25  37 S12       29.87S
TORRINGTON     FAIR      58  25  28 SE9       29.79S
PINE BLUFFS    FAIR      48  28  46 S7        29.86S

$$




USA.gov is the U.S. government's official web portal to all federal, state and local government web resources and services.